Location: G�kdere
(37.0328°N, 30.9000°E)
Time: 03:57:46
(UTC+00:00)

SL-08 RB Rocket - Pass Details

Date: 03 March 2021
Orbit: 646 x 684 km, 97.8° (Epoch: 20 April)

Event Time Altitude Azimuth Distance (km) Brightness Sun altitude
Rises 17:09:21 0° 164° (SSE) 2,954 6.8 -16.1°
Reaches altitude 10° 17:11:33 10° 164° (SSE) 2,052 6.0 -16.6°
Maximum altitude 17:16:02 82° 77° (ENE) 668 3.6 -17.4°
Drops below altitude 10° 17:20:35 10° 350° (N) 2,088 6.4 -18.3°
Sets 17:22:50 0° 349° (N) 3,011 7.3 -18.8°
